Belichi, Ukraine

4:04 PM EEST on May 29, 2017 (GMT +0300)
Belichi

Weather History for 33345 - September, 2013

Change the Weather History Date:

Saturday, September 28, 2013

  Actual Average Record
Temperature  
Mean Temperature 43 °F -  
Max Temperature 50 °F - - ()
Min Temperature 36 °F - - ()
Degree Days  
Heating Degree Days 22    
Moisture  
Dew Point 37 °F    
Average Humidity 83    
Maximum Humidity 100    
Minimum Humidity 54    
Precipitation  
Precipitation 0.00 in 0.05 in - ()
Sea Level Pressure  
Sea Level Pressure 29.92 in    
Wind  
Wind Speed 6 mph ()    
Max Wind Speed 13 mph    
Max Gust Speed -    
Visibility 7.9 miles    
Events Fog , Rain    
T = Trace of Precipitation, MM = Missing Value Source: Averaged Metar Reports

Daily Weather History Graph

Daily Weather History Graph

Search for Another Location

Airport or City:

Trip Planner

Search our weather history database for the weather conditions in past years. The results will help you decide how hot, cold, wet, or windy it might be!

Date:

Astronomy

Sep. 28, 2013 Rise Set
Actual Time 6:53 AM EEST 6:43 PM EEST
Civil Twilight 6:21 AM EEST 7:15 PM EEST
Nautical Twilight 5:43 AM EEST 7:53 PM EEST
Astronomical Twilight 5:03 AM EEST 8:32 PM EEST
Moon No Moon Rise 3:19 PM EEST (9/28)
Length of Visible Light 12h 54m
Length of Day
11h 49m
Last Quarter, 39% of the Moon is Illuminated
Sep 28
Last Quarter
Oct 5
New
Oct 12
First Quarter
Oct 19
Full
Oct 27
Last Quarter

Hourly Weather History & Observations

Time (EEST) Temp. Windchill Dew Point Humidity Pressure Visibility Wind Dir Wind Speed Gust Speed Precip Events Conditions
12:00 AM 38 °F - 33 °F 74% 29.97 in 12 mi West 4.5 mph - -  
12:00 AM 35.6 °F 30.0 °F 33.8 °F 93% 29.95 in - WSW 6.7 mph - N/A   Clear
12:30 AM 35.6 °F 30.0 °F 33.8 °F 93% 29.95 in - West 6.7 mph - N/A   Clear
1:00 AM 35.6 °F 31.8 °F 33.8 °F 93% 29.95 in - WSW 4.5 mph - N/A   Clear
1:30 AM 35.6 °F 30.0 °F 33.8 °F 93% 29.92 in - WSW 6.7 mph - N/A   Clear
2:00 AM 35.6 °F 31.8 °F 33.8 °F 93% 29.92 in - WSW 4.5 mph - N/A   Clear
2:30 AM 35.6 °F 30.0 °F 33.8 °F 93% 29.92 in - WSW 6.7 mph - N/A   Clear
3:00 AM 38 °F - 33 °F 76% 29.95 in 12 mi West 4.5 mph - -   Clear
3:00 AM 35.6 °F 31.8 °F 33.8 °F 93% 29.92 in 6.2 mi WSW 4.5 mph - N/A Fog Shallow Fog
3:30 AM 35.6 °F 30.0 °F 33.8 °F 93% 29.92 in 6.2 mi WSW 6.7 mph - N/A Fog Shallow Fog
4:00 AM 35.6 °F 30.0 °F 33.8 °F 93% 29.92 in 6.2 mi WSW 6.7 mph - N/A Fog Shallow Fog
4:30 AM 35.6 °F 30.0 °F 33.8 °F 93% 29.92 in 6.2 mi WSW 6.7 mph - N/A Fog Shallow Fog
5:00 AM 35.6 °F 30.0 °F 33.8 °F 93% 29.92 in - WSW 6.7 mph - N/A   Clear
5:30 AM 35.6 °F 30.0 °F 33.8 °F 93% 29.92 in - WSW 6.7 mph - N/A   Clear
6:00 AM 35.6 °F 31.8 °F 33.8 °F 93% 29.92 in - WSW 4.5 mph - N/A   Clear
6:30 AM 35.6 °F 31.8 °F 33.8 °F 93% 29.92 in - West 4.5 mph - N/A   Clear
7:00 AM 35.6 °F 31.8 °F 35.6 °F 100% 29.92 in - WSW 4.5 mph - N/A   Clear
7:30 AM 37.4 °F 32.2 °F 35.6 °F 93% 29.92 in - WSW 6.7 mph - N/A   Clear
8:00 AM 37.4 °F 32.2 °F 35.6 °F 93% 29.92 in - WSW 6.7 mph - N/A   Clear
8:30 AM 39.2 °F 34.4 °F 37.4 °F 93% 29.92 in - WSW 6.7 mph - N/A   Clear
9:00 AM 41 °F - 36 °F 77% 29.94 in 12 mi West 4.5 mph - -   Mostly Cloudy
9:00 AM 41.0 °F 36.5 °F 37.4 °F 87% 29.92 in - WSW 6.7 mph - N/A   Clear
9:30 AM 41.0 °F 36.5 °F 39.2 °F 93% 29.92 in - West 6.7 mph - N/A   Clear
10:00 AM 42.8 °F 38.7 °F 39.2 °F 87% 29.92 in - West 6.7 mph - N/A   Clear
10:30 AM 42.8 °F 38.7 °F 39.2 °F 87% 29.92 in - West 6.7 mph - N/A   Clear
11:00 AM 42.8 °F 37.6 °F 39.2 °F 87% 29.92 in - West 8.9 mph - N/A   Clear
11:30 AM 44.6 °F 40.8 °F 39.2 °F 81% 29.92 in - WSW 6.7 mph - N/A   Clear
12:00 PM 44.6 °F 40.8 °F 41.0 °F 87% 29.92 in - West 6.7 mph - N/A   Clear
12:30 PM 48.2 °F - 41.0 °F 76% 29.92 in - West 6.7 mph - N/A   Clear
1:00 PM 48.2 °F - 39.2 °F 71% 29.89 in 6.2 mi West 11.2 mph - N/A Rain Light Rain Showers
1:30 PM 48.2 °F - 39.2 °F 71% 29.89 in 6.2 mi West 6.7 mph - N/A   Mostly Cloudy
2:00 PM 48.2 °F - 41.0 °F 76% 29.89 in 6.2 mi North 4.5 mph - N/A   Mostly Cloudy
2:30 PM 48.2 °F - 37.4 °F 66% 29.89 in 6.2 mi West 11.2 mph - N/A   Mostly Cloudy
3:00 PM 49 °F - 37 °F 54% 29.91 in 12 mi West 8.9 mph - -   Mostly Cloudy
3:00 PM 48.2 °F - 37.4 °F 66% 29.89 in 6.2 mi WSW 13.4 mph - N/A   Mostly Cloudy
3:30 PM 48.2 °F - 37.4 °F 66% 29.89 in 6.2 mi West 11.2 mph - N/A   Mostly Cloudy
4:00 PM 50.0 °F - 35.6 °F 58% 29.89 in 6.2 mi WSW 8.9 mph - N/A   Mostly Cloudy
4:30 PM 48.2 °F - 37.4 °F 66% 29.89 in 6.2 mi West 11.2 mph - N/A   Mostly Cloudy
5:00 PM 48.2 °F - 39.2 °F 71% 29.89 in 6.2 mi WSW 8.9 mph - N/A   Mostly Cloudy
5:30 PM 46.4 °F 42.0 °F 39.2 °F 76% 29.89 in 6.2 mi WSW 8.9 mph - N/A   Mostly Cloudy
6:00 PM 46 °F - 38 °F 66% 29.92 in 12 mi WSW 6.7 mph - -   Partly Cloudy
6:00 PM 46.4 °F 43.0 °F 39.2 °F 76% 29.89 in - West 6.7 mph - N/A   Clear
6:30 PM 44.6 °F 40.8 °F 39.2 °F 81% 29.89 in - WSW 6.7 mph - N/A   Clear
7:00 PM 44.6 °F 40.8 °F 39.2 °F 81% 29.89 in - WSW 6.7 mph - N/A   Clear
7:30 PM 44.6 °F 42.3 °F 39.2 °F 81% 29.92 in - WSW 4.5 mph - N/A   Clear
8:00 PM 42.8 °F 40.2 °F 39.2 °F 87% 29.92 in - WSW 4.5 mph - N/A   Clear
8:30 PM 42.8 °F 40.2 °F 39.2 °F 87% 29.92 in 6.2 mi WSW 4.5 mph - N/A   Unknown
9:00 PM 44 °F - 39 °F 75% 29.95 in 12 mi West 4.5 mph - -   Mostly Cloudy
9:00 PM 42.8 °F 40.2 °F 41.0 °F 93% 29.92 in - WSW 4.5 mph - N/A   Clear
9:30 PM 42.8 °F 40.2 °F 39.2 °F 87% 29.92 in - WSW 4.5 mph - N/A   Clear
10:00 PM 42.8 °F 40.2 °F 39.2 °F 87% 29.92 in - West 4.5 mph - N/A   Clear
10:30 PM 42.8 °F 38.7 °F 41.0 °F 93% 29.92 in - West 6.7 mph - N/A   Clear
11:00 PM 42.8 °F 38.7 °F 41.0 °F 93% 29.92 in - West 6.7 mph - N/A   Clear
11:30 PM 42.8 °F 38.7 °F 39.2 °F 87% 29.92 in - West 6.7 mph - N/A   Clear